Location: Makanda
(37.6176°N, 89.2090°W)
Time: 18:31:13
(UTC+00:00)

Cosmos 1655 Rocket - Pass Details

Date: 23 September 2019
Orbit: 971 x 1005 km, 83.0° (Epoch: 21 October)

Event Time Altitude Azimuth Distance (km) Brightness Sun altitude
Exits shadow 10:28:04 12° 213° (SSW) 2,585 5.8 -16.0°
Maximum altitude 10:33:32 42° 282° (WNW) 1,362 4.3 -14.9°
Drops below altitude 10° 10:39:27 10° 352° (N) 2,745 6.4 -13.8°
Sets 10:42:09 0° 360° (N) 3,702 7.2 -13.3°
